Change the Weather History Date:

Tuesday, November 19, 2013

  Actual Average Record
Temperature  
Mean Temperature 49 °F 50 °F  
Max Temperature 56 °F 61 °F 77 °F (1985)
Min Temperature 42 °F 39 °F 17 °F (1914)
Degree Days  
Heating Degree Days 16 15  
Month to date heating degree days 251 228  
Since 1 July heating degree days 380 400  
Cooling Degree Days 0 0  
Month to date cooling degree days 0 0  
Year to date cooling degree days 1752 1737  
Moisture  
Dew Point 26 °F    
Average Humidity 41    
Maximum Humidity 53    
Minimum Humidity 29    
Precipitation  
Precipitation 0.00 in 0.18 in 3.21 in (1948)
Month to date precipitation 1.02 2.93  
Year to date precipitation 57.63 45.51  
Snow  
Snow 0.00 in 0.00 in - ()
Month to date snowfall 0.0 0.0  
Since 1 July snowfall 0.0 0.0  
Since 1 September snowfall 0.0 0.0  
Snow Depth 0.00 in    
Sea Level Pressure  
Sea Level Pressure 30.18 in    
Wind  
Wind Speed 11 mph (North)    
Max Wind Speed 21 mph    
Max Gust Speed 29 mph    
Visibility 10 miles    
Events      
T = Trace of Precipitation, MM = Missing Value Source: NWS Daily Summary

Daily Weather History Graph

Daily Weather History Graph

Search for Another Location

Airport or City:

Trip Planner

Search our weather history database for the weather conditions in past years. The results will help you decide how hot, cold, wet, or windy it might be!

Date:

Astronomy

Nov. 19, 2013 Rise Set
Actual Time 7:19 AM EST 5:32 PM EST
Civil Twilight 6:52 AM EST 5:59 PM EST
Nautical Twilight 6:21 AM EST 6:30 PM EST
Astronomical Twilight 5:51 AM EST 7:00 PM EST
Moon 7:23 PM EST (11/19) 8:57 AM EST (11/19)
Length of Visible Light 11h 07m
Length of Day
10h 13m
Waning Gibbous, 96% of the Moon is Illuminated
Nov 19
Waning Gibbous
Nov 25
Last Quarter
Dec 2
New
Dec 9
First Quarter
Dec 17
Full

Hourly Weather History & Observations

Time (EST) Temp. Windchill Dew Point Humidity Pressure Visibility Wind Dir Wind Speed Gust Speed Precip Events Conditions
12:53 AM 48.9 °F - 28.9 °F 46% 30.17 in 10.0 mi North 17.3 mph - N/A   Clear
1:53 AM 46.9 °F - 28.9 °F 50% 30.16 in 10.0 mi North 16.1 mph - N/A   Clear
2:53 AM 46.0 °F 41.0 °F 30.0 °F 54% 30.16 in 10.0 mi North 10.4 mph - N/A   Clear
3:53 AM 45.0 °F 39.3 °F 28.0 °F 52% 30.16 in 10.0 mi North 11.5 mph - N/A   Clear
4:53 AM 44.1 °F 37.1 °F 27.0 °F 51% 30.17 in 10.0 mi North 15.0 mph - N/A   Clear
5:53 AM 43.0 °F 36.4 °F 27.0 °F 53% 30.17 in 10.0 mi North 12.7 mph 21.9 mph N/A   Scattered Clouds
6:53 AM 43.0 °F 36.4 °F 27.0 °F 53% 30.18 in 10.0 mi NNE 12.7 mph - N/A   Mostly Cloudy
7:53 AM 44.1 °F 37.4 °F 27.0 °F 51% 30.19 in 10.0 mi NNE 13.8 mph 23.0 mph N/A   Mostly Cloudy
8:53 AM 45.0 °F 38.5 °F 28.0 °F 52% 30.22 in 10.0 mi NNE 13.8 mph 19.6 mph N/A   Mostly Cloudy
9:53 AM 46.9 °F - 28.0 °F 48% 30.23 in 10.0 mi North 16.1 mph 23.0 mph N/A   Mostly Cloudy
10:53 AM 50.0 °F - 26.1 °F 39% 30.24 in 10.0 mi NNE 10.4 mph 18.4 mph N/A   Mostly Cloudy
11:53 AM 51.1 °F - 25.0 °F 36% 30.23 in 10.0 mi NNE 9.2 mph - N/A   Mostly Cloudy
12:53 PM 53.1 °F - 24.1 °F 32% 30.17 in 10.0 mi NNE 19.6 mph 25.3 mph N/A   Scattered Clouds
1:53 PM 54.0 °F - 23.0 °F 30% 30.16 in 10.0 mi North 13.8 mph 21.9 mph N/A   Scattered Clouds
2:53 PM 53.1 °F - 25.0 °F 34% 30.14 in 10.0 mi North 11.5 mph - N/A   Mostly Cloudy
3:53 PM 52.0 °F - 24.1 °F 34% 30.15 in 10.0 mi North 11.5 mph - N/A   Mostly Cloudy
4:53 PM 52.0 °F - 23.0 °F 32% 30.16 in 10.0 mi North 10.4 mph - N/A   Mostly Cloudy
5:53 PM 51.1 °F - 23.0 °F 33% 30.17 in 10.0 mi NNE 9.2 mph - N/A   Mostly Cloudy
6:53 PM 50.0 °F - 25.0 °F 38% 30.18 in 10.0 mi North 8.1 mph - N/A   Mostly Cloudy
7:53 PM 48.9 °F - 25.0 °F 39% 30.19 in 10.0 mi NNE 6.9 mph - N/A   Mostly Cloudy
8:53 PM 48.9 °F - 25.0 °F 39% 30.18 in 10.0 mi NNE 6.9 mph - N/A   Mostly Cloudy
9:53 PM 48.0 °F - 26.1 °F 42% 30.19 in 10.0 mi North 8.1 mph - N/A   Mostly Cloudy
10:53 PM 46.9 °F - 27.0 °F 46% 30.19 in 10.0 mi Calm Calm - N/A   Mostly Cloudy
11:53 PM 45.0 °F 43.5 °F 28.0 °F 52% 30.19 in 10.0 mi North 3.5 mph - N/A   Scattered Clouds